Regional Weather Roundup
Issued by NWS

Home | Current Version | Previous Version | Graphics & Text | Print | Product List | Glossary On
Versions: 1 2 3 4 5 6 7 8 9 10 11 12 13 14 15 16 17 18 19 20 21 22 23 24 25 26 27 28 29 30 31 32 33 34 35 36 37 38 39 40 41 42 43 44 45 46 47 48 49 50
000
ASUS45 KBOU 261907
RWRCO

WEATHER ROUNDUP FOR COLORADO
NATIONAL WEATHER SERVICE DENVER/BOULDER CO
100 PM MDT SUN APR 26 2015

NOTE: "FAIR" INDICATES FEW OR NO CLOUDS BELOW 12000 FEET WITH NO
SIGNIFICANT WEATHER AND/OR OBSTRUCTIONS TO VISIBILITY.

COZ001>005-013-030-031-262000-
...NORTHWEST COLORADO...

CITY           SKY/WX    TMP DP  RH WIND       PRES   REMARKS
CRAIG          PTSUNNY   55  37  50 W9        29.76F
HAYDEN         PTSUNNY   54  34  47 E10       29.76F
MEEKER         PTSUNNY   54  41  61 SW16      29.78S
MOUNT WERNER   NOT AVBL
STEAMBOAT SPGS PTSUNNY   52  34  49 E7        29.78S
WALDEN         CLOUDY    43  32  65 NE9       29.86S
$$

COZ006>008-011-262000-
...WEST CENTRAL VALLEYS...

CITY           SKY/WX    TMP DP  RH WIND       PRES   REMARKS
GRAND JUNCTION PTSUNNY   50  42  74 MISG      29.78F
MONTROSE       CLOUDY    46  40  79 NW10      29.80S
EAGLE          CLOUDY    48  37  66 SE3       29.80S
RIFLE          PTSUNNY   53  42  66 W20G26    29.75F
DELTA          PTSUNNY   57  44  62 MISG      29.75F
NUCLA          PTSUNNY   50  37  62 NW6       29.82F
$$

COZ017>023-064>068-262000-
...SOUTHWEST COLORADO...

CITY           SKY/WX    TMP DP  RH WIND       PRES   REMARKS
DURANGO        PTSUNNY   47  39  74 MISG      29.75F
CORTEZ         CLOUDY    50  39  66 VRB7      29.77F
PAGOSA SPRINGS LGT RAIN  39  38  96 CALM      29.78F
TELLURIDE      HVY SNOW  33  33 100 W17G23    29.82S VSB<1/4 WCI  22
WOLF CREEK PAS NOT AVBL
$$

COZ009-010-012-014-032>034-037-058>063-262000-
...CENTRAL COLORADO...

CITY           SKY/WX    TMP DP  RH WIND       PRES   REMARKS
ASPEN          LGT RAIN  44  33  65 VRB3      29.78S
BUENA VISTA    LGT RAIN  38  35  91 NE6       29.84S
COPPER MTN     CLOUDY    32  28  86 MISG      29.91F
BERTHOUD PASS  HVY SNOW  23  14  68 MISG      29.96R VSB<1/4
COTTONWOOD PAS SNOW      34  32  93 CALM      29.87R VSB 1/4
GUNNISON       PTSUNNY   54  28  37 SE13G20   29.76F
KREMMLING      CLOUDY    43  36  75 E6        29.86R
LEADVILLE      SNOW      30  30 100 S5        29.86S VSB 1/2 WCI  25
MONARCH PASS   SNOW      27  25  93 NE26      29.96F VSB<1/4 WCI  11
SALIDA         CLOUDY    40  37  88 W6        29.89R
SUNLIGHT       FOG       34  32  93 N5        29.91S VSB<1/4 WCI  30
WILKERSON PASS LGT SNOW N/A N/A N/A NE10      29.93S VSB 3/4
$$

COZ069>075-262000-
...SAN LUIS VALLEY/SANGRE DE CRISTO MOUNTAINS...

CITY           SKY/WX    TMP DP  RH WIND       PRES   REMARKS
ALAMOSA        LGT RAIN  44  34  67 SE16G23   29.75F
LA VETA PASS   TSTM      34  32  93 NE9G16    29.84F VSB 1/4 WCI  26
SAGUACHE       NOT AVBL
$$

COZ035-036-038>040-262000-
...NORTHERN COLORADO FRONT RANGE...

CITY           SKY/WX    TMP DP  RH WIND       PRES   REMARKS
DENVER INTL AP LGT RAIN  43  43 100 E16       29.87S FOG
DMNS CITY PARK   N/A     43  42  97 NE8G14    29.89S
AURORA         LGT RAIN  42  42 100 E14       29.87F
FRONT RANGE AP FOG       45  45 100 E16       29.89R VSB 1
ERIE MUNI ARPT RAIN      43  41  93 E8        29.90S
BOULDER MUN AP RAIN      43  43 100 NE7       29.90R
CENTENNIAL     LGT RAIN  43  41  93 NE8       29.86F
BROOMFIELD     RAIN      43  41  93 NE7       29.90R
FORT COLLINS   CLOUDY    45  43  93 E7        29.92S
LONGMONT       CLOUDY    47  44  88 E7        29.91F FOG
$$

COZ041-046-047-076>085-087-088-262000-
...PIKES PEAK/PALMER DIVIDE AND SOUTHERN FOOTHILLS...

CITY           SKY/WX    TMP DP  RH WIND       PRES   REMARKS
COLO. SPRINGS  LGT RAIN  43  41  93 E17       29.85S
A. F. ACADEMY  CLOUDY    43  42  95 E13       29.84S
ELLICOTT       LGT RAIN N/A N/A N/A E18       29.85R
FALCON         DRIZZLE   40  40  99 E16       29.87S
FORT CARSON    LGT RAIN  43  43  99 E16       29.83S FOG
LIMON          CLOUDY    42  41  96 E15       29.88R FOG
MONUMENT HILL  LGT RAIN  39  37  93 SE13      29.86S
TRINIDAD       CLOUDY    57  32  38 SE18G25   29.72F
$$

COZ042>045-048>051-090-091-262000-
...NORTHEAST COLORADO...

CITY           SKY/WX    TMP DP  RH WIND       PRES   REMARKS
GREELEY ARPT   CLOUDY    43  39  87 E14       29.91S
AKRON          CLOUDY    41  41 100 E14       29.91S FOG
BURLINGTON     CLOUDY    44  42  93 E18       29.89F FOG
WRAY           CLOUDY   N/A N/A N/A E13       29.94S FOG
STERLING       CLOUDY    43  43 100 E12       29.93S FOG
HOLYOKE        CLOUDY    45  43  93 E9        29.96S FOG
FORT MORGAN    CLOUDY    43  41  92 E16       29.92R
$$

COZ086-089-092>099-262000-
...SOUTHEAST COLORADO...

CITY           SKY/WX    TMP DP  RH WIND       PRES   REMARKS
PUEBLO         LGT RAIN  46  44  93 E20G29    29.80F
LA JUNTA       CLOUDY    52  45  77 E25       29.81F
LAMAR          CLOUDY    47  46  97 E16       29.84S FOG
SPRINGFIELD      N/A     47  47 100 E21       29.81R
$$



USA.gov is the U.S. government's official web portal to all federal, state and local government web resources and services.